| time (UTC) | temp C | wind direction | speed KPH | gust KPH | rain 1hr cm | rain 24hr cm | rain mn cm | humidity % | barometer mb |
| 20260507045403 | 15 | 180 | 6.4 | 6.4 | 0.00 | 0.00 | 0.00 | 90 | 1007.1 |
| 20260507044303 | 16 | 203 | 3.2 | 6.4 | 0.00 | 0.00 | 0.00 | 86 | 1007.1 |
| 20260507042202 | 16 | 180 | 11.3 | 11.3 | 0.00 | 0.00 | 0.00 | 83 | 1006.8 |
| 20260507033703 | 17 | 158 | 3.2 | 11.3 | 0.00 | 0.00 | 0.30 | 81 | 1007.1 |
| 20260507032602 | 17 | 180 | 4.8 | 8.0 | 0.00 | 0.00 | 0.30 | 83 | 1006.1 |
| 20260507030404 | 18 | 203 | 8.0 | 8.0 | 0.00 | 0.00 | 0.30 | 86 | 1005.8 |
| 20260507025403 | 18 | 203 | 8.0 | 9.7 | 0.00 | 0.00 | 0.30 | 85 | 1006.1 |
| 20260507021003 | 19 | 248 | 6.4 | 12.9 | 0.00 | 0.00 | 0.30 | 83 | 1005.8 |
| 20260507015903 | 20 | 225 | 6.4 | 12.9 | 0.00 | 0.00 | 0.30 | 86 | 1006.1 |
| 20260507014803 | 20 | 315 | 6.4 | 6.4 | 0.00 | 0.00 | 0.30 | 88 | 1006.1 |
| 20260507013802 | 20 | 135 | 3.2 | 6.4 | 0.00 | 0.00 | 0.30 | 88 | 1006.4 |
| 20260507012703 | 20 | 158 | 0.0 | 3.2 | 0.00 | 0.00 | 0.30 | 88 | 1006.1 |
| 20260507011603 | 20 | 180 | 3.2 | 3.2 | 0.00 | 0.00 | 0.30 | 86 | 1006.1 |
| 20260507010505 | 20 | 293 | 0.0 | 4.8 | 0.00 | 0.00 | 0.30 | 86 | 1005.8 |
| 20260507005503 | 20 | 158 | 1.6 | 4.8 | 0.00 | 0.00 | 0.30 | 86 | 1005.8 |
| 20260507004502 | 20 | 315 | 3.2 | 4.8 | 0.00 | 0.00 | 0.30 | 86 | 1006.1 |
| 20260507003302 | 20 | 45 | 3.2 | 4.8 | 0.00 | 0.00 | 0.30 | 86 | 1005.8 |
| 20260507001103 | 20 | 23 | 3.2 | 6.4 | 0.00 | 0.00 | 0.30 | 85 | 1005.4 |
| 20260506233902 | 21 | 23 | 0.0 | 1.6 | 0.00 | 0.00 | 0.30 | 83 | 1004.4 |
| 20260506231702 | 22 | 270 | 3.2 | 3.2 | 0.00 | 0.00 | 0.30 | 81 | 1004.4 |
| 20260506230604 | 22 | 180 | 3.2 | 3.2 | 0.00 | 0.00 | 0.30 | 81 | 1004.7 |
| 20260506225603 | 22 | 225 | 0.0 | 0.0 | 0.00 | 0.00 | 0.30 | 80 | 1004.4 |
| 20260506224503 | 22 | 23 | 0.0 | 4.8 | 0.00 | 0.00 | 0.30 | 80 | 1004.4 |
| 20260506223402 | 22 | 315 | 3.2 | 4.8 | 0.00 | 0.00 | 0.30 | 79 | 1004.7 |
| 20260506222305 | 23 | 23 | 1.6 | 4.8 | 0.00 | 0.00 | 0.30 | 78 | 1004.7 |
| 20260506221203 | 23 | 203 | 0.0 | 4.8 | 0.00 | 0.00 | 0.30 | 76 | 1004.1 |
| 20260506220103 | 23 | 23 | 3.2 | 4.8 | 0.00 | 0.00 | 0.30 | 75 | 1004.4 |
| 20260506215102 | 24 | 90 | 1.6 | 3.2 | 0.00 | 0.00 | 0.30 | 75 | 1004.4 |
| 20260506212902 | 23 | 180 | 3.2 | 4.8 | 0.00 | 0.00 | 0.30 | 75 | 1004.4 |
| 20260506211803 | 23 | 0 | 8.0 | 8.0 | 0.00 | 0.00 | 0.30 | 75 | 1004.1 |
| 20260506210704 | 23 | 180 | 3.2 | 6.4 | 0.00 | 0.00 | 0.30 | 75 | 1004.4 |
| 20260506205702 | 24 | 135 | 4.8 | 8.0 | 0.00 | 0.00 | 0.30 | 74 | 1003.7 |
| 20260506204602 | 25 | 23 | 3.2 | 6.4 | 0.00 | 0.00 | 0.30 | 71 | 1004.1 |
| 20260506203503 | 26 | 338 | 4.8 | 6.4 | 0.00 | 0.00 | 0.30 | 70 | 1004.1 |
| 20260506202403 | 26 | 23 | 3.2 | 8.0 | 0.00 | 0.00 | 0.30 | 70 | 1004.1 |
| 20260506200204 | 25 | 23 | 6.4 | 9.7 | 0.00 | 0.00 | 0.30 | 70 | 1004.4 |
| 20260506195202 | 24 | 248 | 4.8 | 6.4 | 0.00 | 0.00 | 0.30 | 74 | 1004.4 |
| 20260506194103 | 25 | 158 | 1.6 | 8.0 | 0.00 | 0.00 | 0.30 | 71 | 1004.1 |
| 20260506192003 | 24 | 225 | 3.2 | 8.0 | 0.00 | 0.00 | 0.30 | 71 | 1004.7 |
| 20260506184703 | 22 | 90 | 6.4 | 9.7 | 0.00 | 0.00 | 0.30 | 80 | 1005.1 |
| 20260506182503 | 21 | 68 | 4.8 | 9.7 | 0.00 | 0.00 | 0.30 | 83 | 1005.1 |
| 20260506181402 | 20 | 225 | 6.4 | 9.7 | 0.00 | 0.00 | 0.30 | 83 | 1005.1 |
| 20260506175305 | 20 | 248 | 3.2 | 11.3 | 0.00 | 0.00 | 0.30 | 86 | 1005.4 |
| 20260506174203 | 19 | 0 | 4.8 | 8.0 | 0.00 | 0.00 | 0.30 | 88 | 1005.4 |
| 20260506173103 | 19 | 45 | 8.0 | 11.3 | 0.00 | 0.00 | 0.30 | 88 | 1005.4 |
| 20260506163503 | 17 | 23 | 4.8 | 11.3 | 0.00 | 0.00 | 0.30 | 93 | 1006.1 |
| 20260506162403 | 17 | 203 | 3.2 | 6.4 | 0.00 | 0.00 | 0.30 | 96 | 1006.8 |
| 20260506161302 | 17 | 338 | 1.6 | 4.8 | 0.00 | 0.00 | 0.30 | 96 | 1006.8 |
| 20260506160203 | 17 | 23 | 0.0 | 4.8 | 0.00 | 0.00 | 0.30 | 96 | 1007.5 |
| 20260506153903 | 17 | 45 | 3.2 | 6.4 | 0.03 | 0.00 | 0.28 | 96 | 1006.8 |
| 20260506152903 | 17 | 68 | 4.8 | 4.8 | 0.03 | 0.00 | 0.28 | 96 | 1007.5 |
| 20260506151803 | 17 | 0 | 1.6 | 4.8 | 0.03 | 0.00 | 0.28 | 96 | 1007.5 |
| 20260506150703 | 17 | 225 | 1.6 | 11.3 | 0.03 | 0.00 | 0.28 | 96 | 1007.1 |
| 20260506145702 | 17 | 315 | 3.2 | 6.4 | 0.13 | 0.00 | 0.25 | 96 | 1008.1 |
| 20260506144603 | 17 | 45 | 0.0 | 4.8 | 0.08 | 0.00 | 0.20 | 95 | 1007.5 |
| 20260506143502 | 17 | 23 | 1.6 | 12.9 | 0.05 | 0.00 | 0.18 | 95 | 1007.5 |
| 20260506142402 | 17 | 23 | 1.6 | 9.7 | 0.03 | 0.00 | 0.15 | 95 | 1007.1 |
| 20260506141303 | 17 | 45 | 4.8 | 4.8 | 0.03 | 0.00 | 0.15 | 95 | 1007.5 |
| 20260506133803 | 17 | 23 | 3.2 | 8.0 | 0.05 | 0.00 | 0.05 | 91 | 1007.8 |
| 20260506132703 | 18 | 293 | 3.2 | 6.4 | 0.00 | 0.00 | 0.00 | 88 | 1007.8 |
| 20260506131603 | 18 | 270 | 0.0 | 6.4 | 0.00 | 0.00 | 0.00 | 86 | 1007.8 |
| 20260506130503 | 18 | 225 | 1.6 | 4.8 | 0.00 | 0.00 | 0.00 | 85 | 1007.1 |
| 20260506125403 | 18 | 158 | 4.8 | 4.8 | 0.00 | 0.00 | 0.00 | 85 | 1007.1 |
| 20260506124302 | 18 | 0 | 3.2 | 6.4 | 0.00 | 0.00 | 0.00 | 85 | 1007.5 |
| 20260506123203 | 18 | 23 | 4.8 | 8.0 | 0.00 | 0.00 | 0.00 | 83 | 1007.5 |
| 20260506122202 | 18 | 45 | 3.2 | 6.4 | 0.00 | 0.00 | 0.00 | 81 | 1008.1 |
| 20260506121102 | 19 | 45 | 4.8 | 9.7 | 0.00 | 0.00 | 0.00 | 80 | 1007.8 |
| 20260506120004 | 20 | 338 | 4.8 | 8.0 | 0.00 | 0.00 | 0.00 | 78 | 1007.8 |
| 20260506115002 | 20 | 23 | 1.6 | 4.8 | 0.00 | 0.00 | 0.00 | 78 | 1007.8 |
| 20260506113903 | 20 | 90 | 4.8 | 9.7 | 0.00 | 0.00 | 0.00 | 78 | 1007.1 |
| 20260506112803 | 20 | 23 | 1.6 | 6.4 | 0.00 | 0.00 | 0.00 | 78 | 1007.1 |
| 20260506110603 | 19 | 45 | 6.4 | 8.0 | 0.00 | 0.00 | 0.00 | 79 | 1007.1 |
| 20260506105503 | 19 | 23 | 3.2 | 6.4 | 0.00 | 0.00 | 0.00 | 80 | 1007.1 |
| 20260506104502 | 18 | 23 | 1.6 | 4.8 | 0.00 | 0.00 | 0.00 | 81 | 1007.1 |
| 20260506103403 | 18 | 315 | 4.8 | 6.4 | 0.00 | 0.00 | 0.00 | 81 | 1006.8 |
| 20260506102403 | 17 | 0 | 3.2 | 4.8 | 0.00 | 0.00 | 0.00 | 81 | 1006.8 |
| 20260506101303 | 17 | 45 | 3.2 | 4.8 | 0.00 | 0.00 | 0.00 | 81 | 1006.8 |
| 20260506100203 | 17 | 23 | 1.6 | 4.8 | 0.00 | 0.00 | 0.00 | 81 | 1006.8 |
| 20260506095003 | 18 | 23 | 1.6 | 4.8 | 0.00 | 0.00 | 0.00 | 81 | 1006.8 |
| 20260506093902 | 18 | 23 | 3.2 | 6.4 | 0.00 | 0.00 | 0.00 | 81 | 1006.8 |
| 20260506092803 | 18 | 23 | 3.2 | 8.0 | 0.00 | 0.00 | 0.00 | 80 | 1007.1 |
| 20260506091702 | 18 | 45 | 1.6 | 6.4 | 0.00 | 0.00 | 0.00 | 79 | 1006.8 |
| 20260506085503 | 19 | 68 | 3.2 | 9.7 | 0.00 | 0.00 | 0.00 | 76 | 1007.1 |
| 20260506084403 | 19 | 0 | 3.2 | 6.4 | 0.00 | 0.00 | 0.00 | 76 | 1007.1 |
| 20260506083403 | 19 | 23 | 1.6 | 6.4 | 0.00 | 0.00 | 0.00 | 75 | 1007.1 |
| 20260506082305 | 19 | 315 | 3.2 | 6.4 | 0.00 | 0.00 | 0.00 | 75 | 1007.1 |
| 20260506081203 | 20 | 270 | 3.2 | 6.4 | 0.00 | 0.00 | 0.00 | 74 | 1006.4 |
| 20260506072803 | 20 | 90 | 3.2 | 4.8 | 0.00 | 0.00 | 0.00 | 70 | 1007.1 |
| 20260506062103 | 21 | 23 | 1.6 | 4.8 | 0.00 | 0.00 | 0.00 | 65 | 1007.1 |
| 20260506061003 | 21 | 315 | 8.0 | 9.7 | 0.00 | 0.00 | 0.00 | 65 | 1007.1 |